TimeEDT,TemperatureF,Dew PointF,Humidity,Sea Level PressureIn,VisibilityMPH,Wind Direction,Wind SpeedMPH,Gust SpeedMPH,PrecipitationIn,Events,Conditions,WindDirDegrees,DateUTC
12:15 AM,42.3,39.4,90,30.10,10.0,Calm,Calm,-,N/A,,Clear,0,2012-10-07 04:15:00
12:55 AM,41.9,39.2,90,30.09,10.0,Calm,Calm,-,N/A,,Clear,0,2012-10-07 04:55:00
1:15 AM,42.1,39.6,91,30.07,10.0,Calm,Calm,-,N/A,,Clear,0,2012-10-07 05:15:00
1:35 AM,42.8,40.3,91,30.07,10.0,Calm,Calm,-,N/A,,Clear,0,2012-10-07 05:35:00
1:55 AM,42.6,40.1,91,30.09,10.0,Calm,Calm,-,N/A,,Clear,0,2012-10-07 05:55:00
2:15 AM,43.3,41.0,91,30.10,7.0,Calm,Calm,-,N/A,,Mostly Cloudy,0,2012-10-07 06:15:00
2:35 AM,44.1,41.7,91,30.10,10.0,Calm,Calm,-,N/A,,Overcast,0,2012-10-07 06:35:00
2:55 AM,44.4,42.1,91,30.10,10.0,Calm,Calm,-,N/A,,Overcast,0,2012-10-07 06:55:00
3:15 AM,45.3,42.8,91,30.09,10.0,Calm,Calm,-,N/A,,Overcast,0,2012-10-07 07:15:00
3:35 AM,45.1,42.3,90,30.09,10.0,Calm,Calm,-,N/A,,Overcast,0,2012-10-07 07:35:00
3:55 AM,45.5,42.4,89,30.09,10.0,Calm,Calm,-,N/A,,Overcast,0,2012-10-07 07:55:00
4:15 AM,45.5,42.4,89,30.09,10.0,Calm,Calm,-,N/A,,Overcast,0,2012-10-07 08:15:00
4:35 AM,45.5,42.3,88,30.09,10.0,Calm,Calm,-,N/A,,Overcast,0,2012-10-07 08:35:00
4:55 AM,45.7,42.4,88,30.09,10.0,Calm,Calm,-,N/A,,Light Drizzle,0,2012-10-07 08:55:00
5:15 AM,46.2,42.8,88,30.10,10.0,Calm,Calm,-,N/A,,Overcast,0,2012-10-07 09:15:00
5:35 AM,46.4,43.0,88,30.10,10.0,Calm,Calm,-,N/A,,Overcast,0,2012-10-07 09:35:00
5:55 AM,46.8,43.2,87,30.11,10.0,Calm,Calm,-,N/A,,Overcast,0,2012-10-07 09:55:00
6:15 AM,46.8,43.3,88,30.11,10.0,Calm,Calm,-,N/A,,Overcast,0,2012-10-07 10:15:00
6:35 AM,46.9,43.7,88,30.11,10.0,Calm,Calm,-,N/A,Rain,Light Rain,0,2012-10-07 10:35:00
6:55 AM,47.1,43.7,88,30.11,10.0,Calm,Calm,-,N/A,Rain,Light Rain,0,2012-10-07 10:55:00
7:15 AM,47.3,43.9,88,30.11,10.0,Calm,Calm,-,N/A,Rain,Rain,0,2012-10-07 11:15:00
7:35 AM,47.1,43.9,88,30.11,10.0,Calm,Calm,-,N/A,Rain,Light Rain,0,2012-10-07 11:35:00
7:55 AM,47.1,44.1,89,30.11,10.0,Calm,Calm,-,N/A,,Drizzle,0,2012-10-07 11:55:00
8:15 AM,46.9,44.1,90,30.13,10.0,Calm,Calm,-,N/A,,Overcast,0,2012-10-07 12:15:00
8:35 AM,47.3,44.4,90,30.12,10.0,Calm,Calm,-,N/A,,Overcast,0,2012-10-07 12:35:00
8:55 AM,47.3,44.4,90,30.12,10.0,Calm,Calm,-,N/A,,Overcast,0,2012-10-07 12:55:00
9:35 AM,47.8,44.8,89,30.13,10.0,Calm,Calm,-,N/A,,Overcast,0,2012-10-07 13:35:00
9:55 AM,48.2,45.1,89,30.14,10.0,Calm,Calm,-,N/A,Rain,Light Rain,0,2012-10-07 13:55:00
10:35 AM,-9999,-9999,N/A,30.13,-9999.0,Calm,Calm,-,N/A,,Unknown,0,2012-10-07 14:35:00
12:15 PM,50.0,44.2,81,30.11,10.0,Calm,Calm,-,N/A,,Unknown,0,2012-10-07 16:15:00
12:35 PM,50.2,44.2,80,30.11,10.0,Calm,Calm,-,N/A,Rain,Light Rain,0,2012-10-07 16:35:00
1:15 PM,50.4,43.0,76,30.09,10.0,Calm,Calm,-,N/A,,Overcast,0,2012-10-07 17:15:00
1:35 PM,50.2,43.0,76,30.09,10.0,Calm,Calm,-,N/A,,Overcast,0,2012-10-07 17:35:00
2:35 PM,51.3,44.6,78,30.06,10.0,Calm,Calm,-,N/A,,Unknown,0,2012-10-07 18:35:00
2:55 PM,-9999,-9999,N/A,30.06,10.0,Calm,Calm,-,N/A,Rain,Rain,0,2012-10-07 18:55:00
3:35 PM,52.5,45.5,77,30.06,10.0,SSE,3.5,-,N/A,,Light Drizzle,160,2012-10-07 19:35:00
3:55 PM,52.7,45.7,77,30.06,10.0,Calm,Calm,-,N/A,,Overcast,0,2012-10-07 19:55:00
4:15 PM,52.5,46.0,79,30.07,7.0,Calm,Calm,-,0.01,Rain,Rain,0,2012-10-07 20:15:00
4:35 PM,52.3,47.7,84,30.08,10.0,Calm,Calm,-,0.02,Rain,Rain,0,2012-10-07 20:35:00
4:55 PM,51.8,47.7,86,30.09,10.0,Calm,Calm,-,0.02,,Overcast,0,2012-10-07 20:55:00
5:15 PM,51.8,47.7,86,30.09,10.0,Calm,Calm,-,N/A,,Overcast,0,2012-10-07 21:15:00
5:35 PM,51.6,45.3,79,30.11,10.0,NW,6.9,-,N/A,,Overcast,310,2012-10-07 21:35:00
5:55 PM,51.1,42.4,72,30.12,10.0,WNW,9.2,-,N/A,,Overcast,300,2012-10-07 21:55:00
6:15 PM,51.3,40.8,67,30.13,10.0,NW,10.4,-,N/A,,Overcast,310,2012-10-07 22:15:00
6:35 PM,51.1,39.9,66,30.13,10.0,NW,8.1,-,N/A,,Overcast,320,2012-10-07 22:35:00
7:15 PM,49.6,37.9,64,30.15,10.0,Calm,Calm,-,N/A,,Unknown,0,2012-10-07 23:15:00
7:35 PM,49.8,41.0,72,30.15,10.0,Calm,Calm,-,N/A,,Overcast,0,2012-10-07 23:35:00
7:55 PM,48.6,42.6,80,30.15,10.0,Calm,Calm,-,N/A,,Overcast,0,2012-10-07 23:55:00
8:15 PM,47.8,40.3,75,30.16,10.0,Calm,Calm,-,N/A,,Overcast,0,2012-10-08 00:15:00
8:35 PM,47.5,40.1,76,30.16,10.0,Calm,Calm,-,N/A,,Mostly Cloudy,0,2012-10-08 00:35:00
8:55 PM,44.8,38.5,79,30.16,10.0,Calm,Calm,-,N/A,,Clear,0,2012-10-08 00:55:00
9:15 PM,42.1,37.9,85,30.17,10.0,Calm,Calm,-,N/A,,Scattered Clouds,0,2012-10-08 01:15:00
9:35 PM,41.7,38.1,87,30.18,10.0,Calm,Calm,-,N/A,,Scattered Clouds,0,2012-10-08 01:35:00
9:55 PM,42.6,38.8,86,30.19,10.0,Calm,Calm,-,N/A,,Mostly Cloudy,0,2012-10-08 01:55:00
10:15 PM,43.3,40.1,88,30.19,10.0,Calm,Calm,-,N/A,,Overcast,0,2012-10-08 02:15:00
10:35 PM,43.7,39.9,87,30.19,10.0,Calm,Calm,-,N/A,,Overcast,0,2012-10-08 02:35:00
10:55 PM,44.6,40.1,84,30.20,10.0,Calm,Calm,-,N/A,,Overcast,0,2012-10-08 02:55:00
11:15 PM,45.9,38.7,76,30.20,10.0,Calm,Calm,-,N/A,,Overcast,0,2012-10-08 03:15:00
11:35 PM,45.7,37.4,73,30.20,10.0,Calm,Calm,-,N/A,,Overcast,0,2012-10-08 03:35:00
11:55 PM,46.8,36.0,66,30.20,10.0,Calm,Calm,-,N/A,,Overcast,0,2012-10-08 03:55:00